User: anonymous   Login
Location: Unspecified
(0.0000°N, 0.0000°E)
Time: 03:40:32
(UTC+00:00)
Language:

Kosmos-1655 - Orbit

View from above orbital plane
View from above orbital plane
View from above satellite
View from above satellite

Ground track
Ground track

The orbit data is extracted from the following two-line orbital elements,

1 15751U 85041A   18230.88975525  .00000029  00000-0  14542-4 0  9991
2 15751  82.9508  11.2630 0028032 109.8103  46.3123 13.71699957662946
Epoch (UTC): 18 August 2018 21:21:14
Eccentricity: 0.0028032
inclination: 82.9508°
perigee height: 973 km
apogee height: 1014 km
right ascension of ascending node: 11.2630°
argument of perigee: 109.8103°
revolutions per day: 13.71699957
mean anomaly at epoch: 46.3123°
orbit number at epoch: 66294

The dashed part of the orbit path shows where the satellite is in the earth's shadow,  

DLR